| time (UTC) | temp C | wind direction | speed KPH | gust KPH | rain 1hr cm | rain 24hr cm | rain mn cm | humidity % | barometer mb |
| 20260508091042 | 5 | 187 | 1.6 | 6.4 | 0.03 | 0.36 | 0.03 | 96 | 1013.3 |
| 20260508090533 | 5 | 187 | 0.0 | 0.0 | 0.00 | 0.33 | 0.00 | 96 | 1013.2 |
| 20260508090052 | 5 | 187 | 0.0 | 0.0 | 0.00 | 0.33 | 0.00 | 96 | 1013.3 |
| 20260508085533 | 5 | 187 | 0.0 | 0.0 | 0.00 | 0.33 | 0.00 | 96 | 1013.2 |
| 20260508085024 | 5 | 187 | 0.0 | 0.0 | 0.00 | 0.33 | 0.00 | 96 | 1013.1 |
| 20260508084555 | 5 | 187 | 0.0 | 0.0 | 0.00 | 0.33 | 0.00 | 96 | 1013.1 |
| 20260508084027 | 5 | 187 | 0.0 | 0.0 | 0.00 | 0.33 | 0.00 | 96 | 1013.0 |
| 20260508083506 | 5 | 187 | 0.0 | 0.0 | 0.00 | 0.33 | 0.00 | 96 | 1012.8 |
| 20260508083111 | 5 | 187 | 0.0 | 0.0 | 0.00 | 0.33 | 0.00 | 96 | 1012.8 |
| 20260508082546 | 5 | 187 | 0.0 | 0.0 | 0.00 | 0.33 | 0.00 | 96 | 1012.7 |
| 20260508082030 | 5 | 187 | 0.0 | 0.0 | 0.00 | 0.33 | 0.00 | 96 | 1012.7 |
| 20260508081548 | 5 | 187 | 0.0 | 0.0 | 0.00 | 0.33 | 0.00 | 96 | 1012.7 |
| 20260508081038 | 5 | 187 | 0.0 | 1.6 | 0.00 | 0.33 | 0.00 | 96 | 1012.6 |
| 20260508080520 | 5 | 187 | 0.0 | 1.6 | 0.00 | 0.36 | 0.00 | 96 | 1012.4 |
| 20260508080013 | 5 | 187 | 0.0 | 0.0 | 0.00 | 0.36 | 0.00 | 96 | 1012.5 |
| 20260508075602 | 6 | 187 | 0.0 | 0.0 | 0.00 | 0.36 | 0.00 | 96 | 1012.4 |
| 20260508075048 | 6 | 187 | 0.0 | 0.0 | 0.00 | 0.36 | 0.00 | 96 | 1012.4 |
| 20260508074616 | 6 | 187 | 0.0 | 0.0 | 0.00 | 0.36 | 0.00 | 96 | 1012.5 |
| 20260508074046 | 6 | 187 | 0.0 | 0.0 | 0.00 | 0.36 | 0.00 | 96 | 1012.5 |
| 20260508073539 | 6 | 187 | 0.0 | 0.0 | 0.00 | 0.36 | 0.00 | 96 | 1012.5 |
| 20260508073102 | 6 | 187 | 0.0 | 0.0 | 0.00 | 0.36 | 0.00 | 96 | 1012.4 |
| 20260508072550 | 6 | 187 | 0.0 | 0.0 | 0.00 | 0.36 | 0.00 | 96 | 1012.4 |
| 20260508072038 | 6 | 187 | 0.0 | 0.0 | 0.00 | 0.36 | 0.00 | 96 | 1012.5 |
| 20260508071553 | 6 | 187 | 0.0 | 0.0 | 0.00 | 0.36 | 0.00 | 96 | 1012.4 |
| 20260508071034 | 6 | 187 | 0.0 | 0.0 | 0.00 | 0.36 | 0.00 | 96 | 1012.3 |
| 20260508070523 | 6 | 187 | 0.0 | 0.0 | 0.00 | 0.36 | 0.00 | 96 | 1012.2 |
| 20260508070042 | 6 | 187 | 0.0 | 0.0 | 0.00 | 0.36 | 0.00 | 96 | 1012.3 |
| 20260508065528 | 6 | 187 | 0.0 | 0.0 | 0.00 | 0.36 | 0.00 | 96 | 1012.2 |
| 20260508065010 | 6 | 187 | 0.0 | 0.0 | 0.00 | 0.36 | 0.00 | 96 | 1012.3 |
| 20260508064544 | 6 | 187 | 0.0 | 0.0 | 0.00 | 0.36 | 0.00 | 96 | 1012.2 |
| 20260508064021 | 6 | 187 | 0.0 | 0.0 | 0.00 | 0.36 | 0.00 | 96 | 1012.2 |
| 20260508063601 | 6 | 187 | 0.0 | 0.0 | 0.00 | 0.36 | 0.00 | 96 | 1012.1 |
| 20260508063057 | 6 | 187 | 0.0 | 0.0 | 0.00 | 0.36 | 0.00 | 95 | 1012.1 |
| 20260508062542 | 6 | 187 | 0.0 | 0.0 | 0.00 | 0.36 | 0.00 | 95 | 1012.2 |
| 20260508062013 | 6 | 187 | 0.0 | 0.0 | 0.00 | 0.36 | 0.00 | 95 | 1012.2 |
| 20260508061534 | 7 | 187 | 0.0 | 4.8 | 0.00 | 0.36 | 0.00 | 96 | 1012.2 |
| 20260508061005 | 7 | 187 | 0.0 | 6.4 | 0.00 | 0.36 | 0.00 | 96 | 1012.2 |
| 20260508060550 | 7 | 187 | 1.6 | 6.4 | 0.00 | 0.36 | 0.00 | 95 | 1012.2 |
| 20260508060100 | 7 | 187 | 0.0 | 3.2 | 0.00 | 0.36 | 0.00 | 96 | 1012.3 |
| 20260508055544 | 7 | 187 | 0.0 | 6.4 | 0.00 | 0.36 | 0.00 | 95 | 1012.3 |
| 20260508055032 | 7 | 187 | 0.0 | 6.4 | 0.00 | 0.36 | 0.00 | 95 | 1012.3 |
| 20260508054502 | 7 | 187 | 1.6 | 6.4 | 0.00 | 0.36 | 0.00 | 95 | 1012.3 |
| 20260508054050 | 7 | 187 | 0.0 | 3.2 | 0.00 | 0.36 | 0.00 | 95 | 1012.1 |
| 20260508053534 | 7 | 187 | 0.0 | 0.0 | 0.00 | 0.36 | 0.00 | 95 | 1012.1 |
| 20260508053010 | 7 | 187 | 0.0 | 1.6 | 0.00 | 0.36 | 0.00 | 95 | 1012.2 |
| 20260508052546 | 7 | 187 | 0.0 | 0.0 | 0.00 | 0.36 | 0.00 | 95 | 1012.1 |
| 20260508052029 | 7 | 187 | 0.0 | 0.0 | 0.00 | 0.36 | 0.00 | 95 | 1012.1 |
| 20260508051539 | 7 | 187 | 0.0 | 3.2 | 0.00 | 0.36 | 0.00 | 95 | 1012.1 |
| 20260508051018 | 7 | 187 | 0.0 | 3.2 | 0.00 | 0.36 | 0.00 | 95 | 1012.0 |
| 20260508050556 | 7 | 187 | 0.0 | 3.2 | 0.00 | 0.36 | 0.00 | 95 | 1011.9 |
| 20260508050059 | 7 | 187 | 0.0 | 1.6 | 0.00 | 0.36 | 0.00 | 95 | 1011.9 |
| 20260508045528 | 7 | 187 | 0.0 | 0.0 | 0.00 | 0.36 | 0.00 | 94 | 1011.9 |
| 20260508045006 | 7 | 187 | 0.0 | 0.0 | 0.00 | 0.36 | 0.00 | 95 | 1011.7 |
| 20260508044524 | 8 | 187 | 0.0 | 0.0 | 0.00 | 0.36 | 0.00 | 95 | 1011.6 |
| 20260508044013 | 8 | 187 | 0.0 | 0.0 | 0.00 | 0.36 | 0.00 | 95 | 1011.3 |
| 20260508043556 | 8 | 187 | 0.0 | 0.0 | 0.00 | 0.36 | 0.00 | 94 | 1011.3 |
| 20260508043017 | 8 | 187 | 0.0 | 0.0 | 0.00 | 0.36 | 0.00 | 94 | 1011.3 |
| 20260508042556 | 8 | 187 | 0.0 | 0.0 | 0.00 | 0.36 | 0.00 | 94 | 1011.2 |
| 20260508042038 | 8 | 187 | 0.0 | 0.0 | 0.00 | 0.36 | 0.00 | 94 | 1011.3 |
| 20260508041555 | 8 | 187 | 0.0 | 0.0 | 0.00 | 0.36 | 0.00 | 94 | 1011.2 |
| 20260508041032 | 8 | 187 | 0.0 | 0.0 | 0.00 | 0.36 | 0.00 | 94 | 1011.3 |
| 20260508040505 | 8 | 187 | 0.0 | 0.0 | 0.00 | 0.46 | 0.00 | 94 | 1011.3 |
| 20260508040044 | 8 | 187 | 0.0 | 0.0 | 0.00 | 0.46 | 0.00 | 94 | 1011.2 |
| 20260508035604 | 8 | 187 | 0.0 | 0.0 | 0.00 | 0.46 | 0.00 | 94 | 1011.1 |
| 20260508035048 | 8 | 187 | 0.0 | 1.6 | 0.00 | 0.46 | 0.00 | 94 | 1011.1 |
| 20260508034559 | 8 | 187 | 0.0 | 1.6 | 0.00 | 0.46 | 0.00 | 93 | 1011.1 |
| 20260508034041 | 8 | 187 | 0.0 | 1.6 | 0.00 | 0.46 | 0.00 | 93 | 1011.0 |
| 20260508033522 | 8 | 187 | 0.0 | 0.0 | 0.00 | 0.46 | 0.00 | 93 | 1010.9 |
| 20260508033028 | 8 | 187 | 0.0 | 0.0 | 0.00 | 0.46 | 0.00 | 92 | 1010.9 |
| 20260508032504 | 9 | 187 | 0.0 | 0.0 | 0.00 | 0.46 | 0.00 | 92 | 1010.8 |
| 20260508032050 | 9 | 187 | 0.0 | 0.0 | 0.00 | 0.46 | 0.00 | 92 | 1010.6 |
| 20260508031602 | 9 | 187 | 0.0 | 3.2 | 0.00 | 0.46 | 0.00 | 92 | 1010.6 |
| 20260508031044 | 10 | 187 | 0.0 | 3.2 | 0.00 | 0.46 | 0.00 | 92 | 1010.6 |
| 20260508030531 | 10 | 187 | 0.0 | 0.0 | 0.00 | 0.56 | 0.46 | 92 | 1010.6 |
| 20260508030054 | 10 | 187 | 0.0 | 0.0 | 0.00 | 0.56 | 0.46 | 92 | 1010.6 |
| 20260508025543 | 10 | 187 | 0.0 | 0.0 | 0.00 | 0.56 | 0.46 | 92 | 1010.6 |
| 20260508025032 | 10 | 187 | 0.0 | 0.0 | 0.00 | 0.56 | 0.46 | 91 | 1010.7 |
| 20260508024545 | 10 | 187 | 0.0 | 0.0 | 0.00 | 0.56 | 0.46 | 91 | 1010.6 |
| 20260508024038 | 10 | 187 | 0.0 | 3.2 | 0.00 | 0.56 | 0.46 | 90 | 1010.4 |
| 20260508023530 | 10 | 187 | 0.0 | 3.2 | 0.00 | 0.56 | 0.46 | 90 | 1010.3 |
| 20260508023039 | 10 | 187 | 0.0 | 3.2 | 0.00 | 0.56 | 0.46 | 89 | 1010.3 |
| 20260508022509 | 11 | 187 | 0.0 | 3.2 | 0.00 | 0.56 | 0.46 | 88 | 1010.4 |
| 20260508022057 | 11 | 187 | 0.0 | 3.2 | 0.00 | 0.56 | 0.46 | 87 | 1010.2 |
| 20260508021603 | 11 | 187 | 0.0 | 1.6 | 0.00 | 0.56 | 0.46 | 84 | 1010.1 |
| 20260508021040 | 11 | 187 | 0.0 | 0.0 | 0.00 | 0.56 | 0.46 | 81 | 1010.0 |
| 20260508020527 | 11 | 187 | 0.0 | 0.0 | 0.00 | 0.56 | 0.46 | 82 | 1010.0 |
| 20260508020039 | 11 | 187 | 0.0 | 0.0 | 0.00 | 0.56 | 0.46 | 80 | 1009.8 |
| 20260508015522 | 11 | 187 | 0.0 | 0.0 | 0.00 | 0.56 | 0.46 | 80 | 1009.8 |
| 20260508015101 | 11 | 187 | 0.0 | 0.0 | 0.00 | 0.56 | 0.46 | 80 | 1009.8 |
| 20260508014509 | 12 | 187 | 0.0 | 0.0 | 0.00 | 0.56 | 0.46 | 80 | 1009.6 |
| 20260508014054 | 12 | 187 | 0.0 | 0.0 | 0.00 | 0.56 | 0.46 | 80 | 1009.5 |
| 20260508013538 | 12 | 187 | 0.0 | 0.0 | 0.00 | 0.56 | 0.46 | 79 | 1009.3 |
| 20260508013032 | 12 | 187 | 0.0 | 0.0 | 0.00 | 0.56 | 0.46 | 79 | 1009.2 |
| 20260508012510 | 12 | 187 | 0.0 | 0.0 | 0.00 | 0.56 | 0.46 | 81 | 1009.0 |
| 20260508012058 | 12 | 187 | 0.0 | 1.6 | 0.00 | 0.56 | 0.46 | 80 | 1008.9 |
| 20260508011514 | 12 | 187 | 0.0 | 3.2 | 0.00 | 0.56 | 0.46 | 83 | 1008.8 |
| 20260508011104 | 12 | 187 | 0.0 | 3.2 | 0.00 | 0.56 | 0.46 | 80 | 1008.8 |
| 20260508010547 | 12 | 187 | 0.0 | 1.6 | 0.00 | 0.56 | 0.46 | 81 | 1008.8 |
| 20260508010055 | 12 | 187 | 0.0 | 3.2 | 0.00 | 0.56 | 0.46 | 80 | 1008.7 |
| 20260508005537 | 12 | 187 | 0.0 | 3.2 | 0.00 | 0.56 | 0.46 | 80 | 1008.6 |
| 20260508005025 | 12 | 187 | 0.0 | 3.2 | 0.00 | 0.56 | 0.46 | 80 | 1008.6 |
| 20260508004534 | 12 | 187 | 0.0 | 0.0 | 0.00 | 0.56 | 0.46 | 81 | 1008.6 |
| 20260508004007 | 13 | 187 | 0.0 | 3.2 | 0.00 | 0.56 | 0.46 | 80 | 1008.6 |
| 20260508003554 | 13 | 187 | 0.0 | 3.2 | 0.00 | 0.56 | 0.46 | 81 | 1008.5 |
| 20260508003103 | 13 | 187 | 0.0 | 4.8 | 0.00 | 0.56 | 0.46 | 81 | 1008.5 |
| 20260508002549 | 13 | 187 | 1.6 | 4.8 | 0.00 | 0.56 | 0.46 | 83 | 1008.5 |
| 20260508002025 | 13 | 187 | 0.0 | 4.8 | 0.00 | 0.56 | 0.46 | 84 | 1008.6 |
| 20260508001541 | 13 | 187 | 0.0 | 8.0 | 0.00 | 0.56 | 0.46 | 85 | 1008.7 |
| 20260508001024 | 14 | 187 | 1.6 | 9.7 | 0.00 | 0.56 | 0.46 | 84 | 1008.6 |
| 20260508000605 | 15 | 187 | 0.0 | 8.0 | 0.00 | 0.56 | 0.46 | 84 | 1008.3 |
| 20260508000006 | 15 | 189 | 0.0 | 11.3 | 0.00 | 0.56 | 0.46 | 81 | 1008.4 |
| 20260507235554 | 15 | 190 | 0.0 | 11.3 | 0.00 | 0.56 | 0.46 | 82 | 1008.3 |
| 20260507235042 | 15 | 192 | 3.2 | 9.7 | 0.00 | 0.56 | 0.46 | 83 | 1008.3 |
| 20260507234522 | 15 | 193 | 3.2 | 9.7 | 0.00 | 0.56 | 0.46 | 87 | 1008.2 |
| 20260507234058 | 15 | 197 | 1.6 | 14.5 | 0.00 | 0.56 | 0.46 | 90 | 1008.1 |
| 20260507233542 | 14 | 205 | 3.2 | 14.5 | 0.00 | 0.56 | 0.46 | 92 | 1008.0 |
| 20260507233110 | 15 | 255 | 1.6 | 11.3 | 0.00 | 0.56 | 0.46 | 93 | 1007.9 |
| 20260507232531 | 15 | 255 | 0.0 | 0.0 | 0.00 | 0.56 | 0.46 | 93 | 1008.0 |
| 20260507232016 | 15 | 255 | 0.0 | 1.6 | 0.00 | 0.56 | 0.46 | 93 | 1007.8 |
| 20260507231507 | 15 | 255 | 0.0 | 3.2 | 0.00 | 0.56 | 0.46 | 93 | 1007.8 |
| 20260507231054 | 15 | 255 | 0.0 | 1.6 | 0.00 | 0.56 | 0.46 | 93 | 1007.8 |
| 20260507230535 | 15 | 255 | 0.0 | 0.0 | 0.00 | 0.56 | 0.46 | 92 | 1007.8 |
| 20260507230049 | 15 | 255 | 0.0 | 0.0 | 0.00 | 0.56 | 0.46 | 92 | 1007.8 |
| 20260507225531 | 15 | 255 | 0.0 | 0.0 | 0.00 | 0.56 | 0.46 | 92 | 1007.8 |
| 20260507225007 | 15 | 255 | 0.0 | 0.0 | 0.00 | 0.56 | 0.46 | 92 | 1007.8 |
| 20260507224553 | 15 | 255 | 0.0 | 0.0 | 0.00 | 0.56 | 0.46 | 92 | 1007.8 |
| 20260507224038 | 15 | 255 | 0.0 | 0.0 | 0.00 | 0.56 | 0.46 | 92 | 1007.7 |
| 20260507223509 | 15 | 255 | 0.0 | 1.6 | 0.00 | 0.56 | 0.46 | 91 | 1007.6 |
| 20260507223116 | 15 | 255 | 0.0 | 1.6 | 0.00 | 0.56 | 0.46 | 91 | 1007.4 |
| 20260507222544 | 15 | 255 | 0.0 | 3.2 | 0.00 | 0.56 | 0.46 | 91 | 1007.3 |
| 20260507222025 | 15 | 255 | 0.0 | 3.2 | 0.00 | 0.56 | 0.46 | 92 | 1007.2 |
| 20260507221541 | 15 | 255 | 0.0 | 3.2 | 0.00 | 0.56 | 0.46 | 93 | 1007.1 |
| 20260507221014 | 15 | 255 | 0.0 | 8.0 | 0.00 | 0.56 | 0.46 | 93 | 1007.1 |
| 20260507220502 | 15 | 255 | 1.6 | 11.3 | 0.00 | 0.56 | 0.46 | 92 | 1007.0 |
| 20260507220033 | 15 | 255 | 3.2 | 11.3 | 0.00 | 0.56 | 0.46 | 91 | 1007.1 |
| 20260507215502 | 15 | 255 | 3.2 | 11.3 | 0.00 | 0.56 | 0.46 | 91 | 1007.1 |
| 20260507215049 | 15 | 255 | 0.0 | 8.0 | 0.00 | 0.56 | 0.46 | 91 | 1007.1 |
| 20260507214604 | 16 | 255 | 0.0 | 11.3 | 0.00 | 0.56 | 0.46 | 90 | 1007.1 |
| 20260507214050 | 16 | 255 | 3.2 | 8.0 | 0.00 | 0.56 | 0.46 | 91 | 1007.0 |
| 20260507213531 | 16 | 255 | 0.0 | 4.8 | 0.00 | 0.56 | 0.46 | 91 | 1007.0 |
| 20260507213046 | 15 | 255 | 0.0 | 11.3 | 0.00 | 0.56 | 0.46 | 91 | 1007.0 |
| 20260507212526 | 15 | 255 | 3.2 | 16.1 | 0.00 | 0.56 | 0.46 | 90 | 1006.8 |
| 20260507212020 | 15 | 255 | 6.4 | 16.1 | 0.00 | 0.56 | 0.46 | 89 | 1006.8 |
| 20260507211547 | 16 | 255 | 4.8 | 12.9 | 0.00 | 0.56 | 0.46 | 92 | 1006.9 |
| 20260507211024 | 15 | 255 | 1.6 | 19.3 | 0.00 | 0.56 | 0.46 | 90 | 1006.8 |
| 20260507210502 | 15 | 256 | 6.4 | 14.5 | 0.00 | 0.56 | 0.46 | 92 | 1006.6 |
| 20260507210021 | 15 | 261 | 1.6 | 22.5 | 0.00 | 0.56 | 0.46 | 94 | 1006.6 |
| 20260507205515 | 15 | 261 | 9.7 | 22.5 | 0.00 | 0.56 | 0.46 | 94 | 1006.5 |
| 20260507205052 | 15 | 286 | 0.0 | 11.3 | 0.00 | 0.56 | 0.46 | 96 | 1006.7 |
| 20260507204601 | 14 | 286 | 0.0 | 11.3 | 0.00 | 0.56 | 0.46 | 95 | 1006.6 |
| 20260507204055 | 14 | 286 | 3.2 | 11.3 | 0.00 | 0.56 | 0.46 | 95 | 1006.7 |
| 20260507203537 | 13 | 286 | 0.0 | 9.7 | 0.00 | 0.56 | 0.46 | 95 | 1006.8 |
| 20260507203051 | 13 | 286 | 3.2 | 11.3 | 0.00 | 0.56 | 0.46 | 95 | 1006.8 |
| 20260507202536 | 13 | 286 | 1.6 | 11.3 | 0.00 | 0.56 | 0.46 | 95 | 1006.8 |
| 20260507202014 | 13 | 286 | 0.0 | 0.0 | 0.00 | 0.56 | 0.46 | 95 | 1007.1 |
| 20260507201538 | 13 | 286 | 0.0 | 0.0 | 0.03 | 0.56 | 0.46 | 95 | 1007.0 |
| 20260507201017 | 13 | 286 | 0.0 | 0.0 | 0.05 | 0.56 | 0.46 | 95 | 1006.9 |
| 20260507200504 | 13 | 286 | 0.0 | 0.0 | 0.05 | 0.56 | 0.46 | 95 | 1007.0 |
| 20260507200019 | 13 | 286 | 0.0 | 4.8 | 0.05 | 0.56 | 0.46 | 95 | 1007.0 |
| 20260507195502 | 13 | 286 | 0.0 | 4.8 | 0.05 | 0.56 | 0.46 | 95 | 1007.1 |
| 20260507195053 | 13 | 286 | 0.0 | 3.2 | 0.05 | 0.56 | 0.46 | 95 | 1007.1 |
| 20260507194518 | 13 | 286 | 0.0 | 3.2 | 0.05 | 0.56 | 0.46 | 95 | 1007.3 |
| 20260507194100 | 13 | 286 | 0.0 | 1.6 | 0.05 | 0.56 | 0.46 | 95 | 1007.2 |
| 20260507193552 | 13 | 286 | 0.0 | 3.2 | 0.05 | 0.56 | 0.46 | 95 | 1007.5 |
| 20260507193003 | 14 | 286 | 0.0 | 1.6 | 0.05 | 0.56 | 0.46 | 95 | 1007.4 |
| 20260507192554 | 14 | 286 | 0.0 | 4.8 | 0.05 | 0.56 | 0.46 | 95 | 1007.3 |
| 20260507192040 | 14 | 286 | 0.0 | 4.8 | 0.05 | 0.56 | 0.46 | 95 | 1007.3 |
| 20260507191518 | 14 | 286 | 0.0 | 3.2 | 0.00 | 0.51 | 0.43 | 95 | 1007.4 |
| 20260507191101 | 14 | 286 | 0.0 | 4.8 | 0.00 | 0.51 | 0.41 | 95 | 1007.0 |
| 20260507190543 | 14 | 286 | 1.6 | 4.8 | 0.00 | 0.51 | 0.41 | 95 | 1007.2 |
| 20260507190057 | 14 | 286 | 0.0 | 9.7 | 0.03 | 0.51 | 0.41 | 95 | 1007.2 |
| 20260507185511 | 14 | 286 | 1.6 | 9.7 | 0.13 | 0.51 | 0.41 | 96 | 1007.2 |
| 20260507185052 | 14 | 287 | 0.0 | 6.4 | 0.15 | 0.51 | 0.41 | 95 | 1007.3 |
| 20260507184604 | 14 | 287 | 0.0 | 8.0 | 0.15 | 0.51 | 0.41 | 96 | 1007.1 |
| 20260507184047 | 14 | 288 | 0.0 | 8.0 | 0.15 | 0.51 | 0.41 | 96 | 1007.3 |
| 20260507183532 | 14 | 288 | 1.6 | 6.4 | 0.15 | 0.51 | 0.41 | 95 | 1007.3 |
| 20260507183109 | 13 | 288 | 0.0 | 6.4 | 0.15 | 0.51 | 0.41 | 95 | 1007.3 |
| 20260507182525 | 14 | 288 | 0.0 | 6.4 | 0.18 | 0.51 | 0.41 | 95 | 1007.4 |
| 20260507182008 | 14 | 288 | 1.6 | 12.9 | 0.18 | 0.51 | 0.41 | 95 | 1007.3 |
| 20260507181526 | 14 | 288 | 0.0 | 4.8 | 0.18 | 0.51 | 0.41 | 95 | 1007.3 |
| 20260507181102 | 14 | 288 | 0.0 | 12.9 | 0.18 | 0.51 | 0.41 | 96 | 1007.2 |
| 20260507180555 | 14 | 288 | 3.2 | 12.9 | 0.18 | 0.56 | 0.41 | 95 | 1007.0 |
| 20260507180002 | 14 | 288 | 3.2 | 12.9 | 0.15 | 0.51 | 0.38 | 95 | 1007.1 |
| 20260507175550 | 14 | 289 | 0.0 | 6.4 | 0.08 | 0.43 | 0.30 | 95 | 1007.4 |
| 20260507175033 | 14 | 289 | 0.0 | 11.3 | 0.05 | 0.41 | 0.25 | 95 | 1007.4 |
| 20260507174529 | 14 | 289 | 1.6 | 11.3 | 0.05 | 0.41 | 0.25 | 95 | 1007.2 |
| 20260507174101 | 14 | 289 | 0.0 | 14.5 | 0.05 | 0.41 | 0.25 | 95 | 1007.2 |
| 20260507173542 | 14 | 289 | 6.4 | 14.5 | 0.05 | 0.41 | 0.25 | 95 | 1007.1 |
| 20260507173105 | 15 | 290 | 1.6 | 4.8 | 0.05 | 0.41 | 0.25 | 95 | 1007.2 |
| 20260507172536 | 15 | 290 | 0.0 | 16.1 | 0.03 | 0.38 | 0.23 | 95 | 1007.1 |
| 20260507172025 | 15 | 290 | 8.0 | 17.7 | 0.03 | 0.38 | 0.23 | 94 | 1007.2 |
| 20260507171532 | 15 | 294 | 6.4 | 19.3 | 0.05 | 0.38 | 0.23 | 94 | 1007.1 |
| 20260507171002 | 15 | 302 | 8.0 | 19.3 | 0.05 | 0.38 | 0.23 | 94 | 1007.2 |
| 20260507170554 | 15 | 320 | 1.6 | 16.1 | 0.05 | 0.38 | 0.23 | 94 | 1007.2 |
| 20260507170103 | 15 | 322 | 6.4 | 14.5 | 0.03 | 0.36 | 0.23 | 94 | 1007.1 |
| 20260507165552 | 15 | 334 | 0.0 | 4.8 | 0.03 | 0.36 | 0.20 | 94 | 1007.1 |
| 20260507165039 | 15 | 334 | 0.0 | 4.8 | 0.03 | 0.36 | 0.20 | 94 | 1006.8 |
| 20260507164558 | 15 | 334 | 0.0 | 3.2 | 0.03 | 0.36 | 0.20 | 93 | 1006.6 |
| 20260507164027 | 16 | 334 | 0.0 | 4.8 | 0.03 | 0.36 | 0.20 | 93 | 1006.6 |
| 20260507163603 | 16 | 334 | 1.6 | 4.8 | 0.03 | 0.36 | 0.20 | 93 | 1006.7 |
| 20260507163024 | 16 | 334 | 1.6 | 4.8 | 0.03 | 0.36 | 0.20 | 92 | 1006.8 |
| 20260507162602 | 16 | 334 | 1.6 | 4.8 | 0.03 | 0.36 | 0.20 | 92 | 1006.9 |
| 20260507162049 | 16 | 334 | 0.0 | 9.7 | 0.03 | 0.36 | 0.20 | 92 | 1007.0 |
| 20260507161600 | 16 | 334 | 1.6 | 9.7 | 0.00 | 0.33 | 0.18 | 92 | 1007.0 |
| 20260507161039 | 16 | 334 | 0.0 | 8.0 | 0.00 | 0.33 | 0.18 | 92 | 1007.1 |
| 20260507160522 | 16 | 334 | 0.0 | 8.0 | 0.00 | 0.36 | 0.18 | 92 | 1007.1 |
| 20260507160014 | 16 | 334 | 0.0 | 14.5 | 0.00 | 0.36 | 0.18 | 92 | 1007.1 |
| 20260507155602 | 16 | 334 | 0.0 | 12.9 | 0.00 | 0.36 | 0.18 | 91 | 1007.1 |
| 20260507155048 | 16 | 337 | 3.2 | 12.9 | 0.00 | 0.36 | 0.18 | 91 | 1006.9 |
| 20260507154532 | 16 | 338 | 3.2 | 12.9 | 0.00 | 0.36 | 0.18 | 92 | 1006.8 |
| 20260507154008 | 16 | 340 | 0.0 | 12.9 | 0.00 | 0.36 | 0.18 | 93 | 1006.7 |
| 20260507153554 | 16 | 340 | 1.6 | 12.9 | 0.00 | 0.36 | 0.18 | 93 | 1006.8 |
| 20260507153016 | 16 | 340 | 1.6 | 8.0 | 0.00 | 0.36 | 0.18 | 94 | 1006.9 |
| 20260507152554 | 16 | 340 | 0.0 | 12.9 | 0.00 | 0.36 | 0.18 | 95 | 1006.9 |
| 20260507152039 | 16 | 342 | 1.6 | 12.9 | 0.00 | 0.36 | 0.18 | 96 | 1007.0 |
| 20260507151547 | 16 | 345 | 3.2 | 12.9 | 0.00 | 0.36 | 0.18 | 96 | 1006.9 |
| 20260507151030 | 16 | 350 | 4.8 | 12.9 | 0.00 | 0.36 | 0.18 | 96 | 1006.9 |
| 20260507150504 | 16 | 355 | 0.0 | 4.8 | 0.00 | 0.36 | 0.18 | 96 | 1007.0 |
| 20260507150018 | 16 | 355 | 0.0 | 4.8 | 0.00 | 0.36 | 0.18 | 96 | 1007.0 |
| 20260507145507 | 16 | 355 | 1.6 | 4.8 | 0.00 | 0.36 | 0.18 | 96 | 1007.0 |
| 20260507145054 | 16 | 355 | 0.0 | 3.2 | 0.00 | 0.36 | 0.18 | 96 | 1007.1 |
| 20260507144537 | 16 | 355 | 0.0 | 12.9 | 0.00 | 0.36 | 0.18 | 96 | 1007.1 |
| 20260507144005 | 16 | 355 | 3.2 | 12.9 | 0.00 | 0.36 | 0.18 | 96 | 1007.0 |
| 20260507143552 | 16 | 359 | 0.0 | 9.7 | 0.00 | 0.36 | 0.18 | 96 | 1006.8 |
| 20260507143045 | 16 | 359 | 1.6 | 9.7 | 0.00 | 0.36 | 0.18 | 97 | 1006.8 |
| 20260507142516 | 16 | 359 | 0.0 | 6.4 | 0.00 | 0.36 | 0.18 | 97 | 1006.6 |
| 20260507142102 | 16 | 359 | 0.0 | 0.0 | 0.00 | 0.36 | 0.18 | 97 | 1006.7 |
| 20260507141521 | 16 | 359 | 0.0 | 0.0 | 0.00 | 0.36 | 0.18 | 97 | 1006.6 |
| 20260507141056 | 16 | 359 | 0.0 | 6.4 | 0.00 | 0.36 | 0.18 | 97 | 1006.6 |
| 20260507140539 | 16 | 359 | 0.0 | 9.7 | 0.00 | 0.36 | 0.18 | 97 | 1006.4 |
| 20260507140046 | 16 | 359 | 3.2 | 16.1 | 0.00 | 0.36 | 0.18 | 97 | 1006.3 |
| 20260507135528 | 16 | 4 | 3.2 | 16.1 | 0.00 | 0.36 | 0.18 | 97 | 1006.3 |
| 20260507135007 | 16 | 31 | 1.6 | 14.5 | 0.00 | 0.36 | 0.18 | 97 | 1006.5 |
| 20260507134522 | 16 | 36 | 6.4 | 14.5 | 0.00 | 0.36 | 0.18 | 97 | 1006.4 |
| 20260507134103 | 17 | 45 | 0.0 | 9.7 | 0.00 | 0.36 | 0.18 | 97 | 1006.3 |
| 20260507133548 | 17 | 47 | 3.2 | 16.1 | 0.00 | 0.36 | 0.18 | 98 | 1006.3 |
| 20260507133107 | 17 | 47 | 3.2 | 16.1 | 0.00 | 0.36 | 0.18 | 98 | 1006.5 |
| 20260507132548 | 17 | 71 | 1.6 | 6.4 | 0.00 | 0.36 | 0.18 | 98 | 1006.5 |
| 20260507132036 | 17 | 71 | 0.0 | 1.6 | 0.00 | 0.36 | 0.18 | 98 | 1006.8 |
| 20260507131526 | 17 | 71 | 0.0 | 1.6 | 0.00 | 0.36 | 0.18 | 98 | 1006.5 |
| 20260507131013 | 17 | 71 | 0.0 | 0.0 | 0.00 | 0.36 | 0.18 | 98 | 1007.0 |
| 20260507130600 | 17 | 71 | 0.0 | 0.0 | 0.00 | 0.36 | 0.18 | 98 | 1007.2 |
| 20260507130050 | 17 | 71 | 0.0 | 4.8 | 0.00 | 0.36 | 0.18 | 98 | 1007.2 |
| 20260507125534 | 17 | 71 | 0.0 | 6.4 | 0.00 | 0.36 | 0.18 | 98 | 1007.3 |
| 20260507125016 | 17 | 71 | 1.6 | 6.4 | 0.00 | 0.36 | 0.18 | 98 | 1007.0 |
| 20260507124545 | 17 | 71 | 0.0 | 1.6 | 0.00 | 0.36 | 0.18 | 98 | 1007.3 |
| 20260507124027 | 17 | 71 | 0.0 | 0.0 | 0.00 | 0.36 | 0.18 | 98 | 1007.4 |
| 20260507123522 | 17 | 71 | 0.0 | 0.0 | 0.00 | 0.36 | 0.18 | 98 | 1007.9 |
| 20260507123035 | 17 | 71 | 0.0 | 0.0 | 0.00 | 0.36 | 0.18 | 98 | 1007.8 |
| 20260507122534 | 17 | 71 | 0.0 | 0.0 | 0.00 | 0.36 | 0.18 | 98 | 1007.8 |
| 20260507122106 | 17 | 71 | 0.0 | 0.0 | 0.03 | 0.36 | 0.18 | 98 | 1007.9 |
| 20260507121513 | 17 | 71 | 0.0 | 0.0 | 0.03 | 0.36 | 0.18 | 98 | 1008.0 |
| 20260507121058 | 17 | 71 | 0.0 | 0.0 | 0.03 | 0.36 | 0.18 | 98 | 1007.7 |
| 20260507120546 | 17 | 71 | 0.0 | 0.0 | 0.03 | 0.36 | 0.18 | 98 | 1007.4 |
| 20260507120059 | 17 | 71 | 0.0 | 0.0 | 0.03 | 0.36 | 0.18 | 98 | 1007.1 |
| 20260507115546 | 17 | 71 | 0.0 | 0.0 | 0.03 | 0.36 | 0.18 | 98 | 1007.2 |
| 20260507115039 | 17 | 71 | 0.0 | 0.0 | 0.03 | 0.36 | 0.18 | 98 | 1006.9 |
| 20260507114607 | 16 | 71 | 0.0 | 0.0 | 0.03 | 0.36 | 0.18 | 98 | 1007.1 |
| 20260507114040 | 16 | 71 | 0.0 | 0.0 | 0.03 | 0.36 | 0.18 | 98 | 1007.3 |
| 20260507113529 | 16 | 71 | 0.0 | 0.0 | 0.03 | 0.36 | 0.18 | 98 | 1007.2 |
| 20260507113102 | 16 | 71 | 0.0 | 0.0 | 0.03 | 0.36 | 0.18 | 98 | 1006.9 |
| 20260507112525 | 16 | 71 | 0.0 | 0.0 | 0.03 | 0.36 | 0.18 | 98 | 1006.9 |
| 20260507112019 | 16 | 71 | 0.0 | 0.0 | 0.00 | 0.33 | 0.15 | 98 | 1006.9 |
| 20260507111539 | 16 | 71 | 0.0 | 0.0 | 0.00 | 0.33 | 0.15 | 98 | 1006.8 |
| 20260507111012 | 16 | 71 | 0.0 | 0.0 | 0.00 | 0.33 | 0.15 | 98 | 1006.8 |
| 20260507110558 | 16 | 71 | 0.0 | 0.0 | 0.00 | 0.33 | 0.15 | 97 | 1006.8 |
| 20260507110018 | 16 | 71 | 0.0 | 0.0 | 0.00 | 0.33 | 0.15 | 97 | 1006.9 |
| 20260507105606 | 16 | 71 | 0.0 | 0.0 | 0.00 | 0.33 | 0.15 | 97 | 1006.9 |
| 20260507105051 | 16 | 71 | 0.0 | 0.0 | 0.00 | 0.33 | 0.15 | 97 | 1006.7 |
| 20260507104557 | 16 | 71 | 0.0 | 0.0 | 0.00 | 0.33 | 0.15 | 97 | 1006.7 |
| 20260507104042 | 16 | 71 | 0.0 | 0.0 | 0.00 | 0.33 | 0.15 | 97 | 1006.4 |
| 20260507103524 | 16 | 71 | 0.0 | 0.0 | 0.00 | 0.33 | 0.15 | 97 | 1007.2 |
| 20260507103041 | 16 | 71 | 0.0 | 0.0 | 0.00 | 0.33 | 0.15 | 97 | 1006.9 |
| 20260507102521 | 16 | 71 | 0.0 | 0.0 | 0.00 | 0.33 | 0.15 | 97 | 1006.8 |
| 20260507102101 | 16 | 71 | 0.0 | 0.0 | 0.00 | 0.33 | 0.15 | 97 | 1006.8 |
| 20260507101524 | 16 | 71 | 0.0 | 0.0 | 0.00 | 0.33 | 0.15 | 97 | 1006.6 |
| 20260507101100 | 16 | 71 | 0.0 | 3.2 | 0.00 | 0.33 | 0.15 | 97 | 1006.5 |
| 20260507100547 | 16 | 71 | 0.0 | 3.2 | 0.03 | 0.33 | 0.15 | 97 | 1006.5 |
| 20260507100044 | 16 | 71 | 0.0 | 0.0 | 0.03 | 0.33 | 0.15 | 97 | 1006.5 |
| 20260507095535 | 16 | 71 | 0.0 | 0.0 | 0.03 | 0.33 | 0.15 | 97 | 1006.3 |
| 20260507095025 | 16 | 71 | 0.0 | 6.4 | 0.03 | 0.33 | 0.15 | 97 | 1006.3 |
| 20260507094542 | 16 | 71 | 0.0 | 6.4 | 0.03 | 0.33 | 0.15 | 97 | 1006.3 |
| 20260507094030 | 16 | 71 | 3.2 | 4.8 | 0.03 | 0.33 | 0.15 | 97 | 1006.3 |
| 20260507093520 | 16 | 71 | 0.0 | 0.0 | 0.03 | 0.33 | 0.15 | 97 | 1006.1 |
| 20260507093004 | 16 | 71 | 0.0 | 0.0 | 0.03 | 0.33 | 0.15 | 97 | 1006.1 |
| 20260507092556 | 16 | 71 | 0.0 | 1.6 | 0.03 | 0.33 | 0.15 | 97 | 1005.9 |
| 20260507092046 | 17 | 71 | 0.0 | 4.8 | 0.03 | 0.33 | 0.15 | 97 | 1006.0 |
| 20260507091537 | 17 | 71 | 0.0 | 4.8 | 0.03 | 0.33 | 0.15 | 97 | 1006.2 |